星链-5492 (STARLINK-5492 )

导读

STARLINK-5492是美国太空探索技术公司(SpaceX)星链(Starlink)项目的卫星,于北京时间2023年1月26日发射入轨,星链项目旨在为全球提供高速互联网接入服务,该卫星是星链星座建设中一员,补充完善低轨卫星星座网络,推动全球卫星互联网覆盖范围与服务能力提升。

基本信息
目录编号:
55331
目录名称:
STARLINK-5492
国际标识:
2023-013A
轨道中心:
EARTH
卫星名称:
星链-5492
卫星全名:
星链-5492 (STARLINK-5492 )
卫星状态:
在轨 (已飞行1324 天)
发射日期:
2023-01-26 UTC
国别 :
美国 (US)
星等 :
--
该卫星已列入 空间交会检测服务 Space Conjunction Data Service (SCDS) ,当前飞行风险评估等级: 高风险
轨道信息
数据来源 国际轨道数据 AOE轨道数据
星历时间 2026-09-11T20:36:59+0800
7小时前
查看轨道信息
2026-09-10T07:00:00+0800
1天前
查看轨道信息
半长轴 6861.208km 6861.209km
偏心率 0.0001238 0.0000154
轨道倾角 43.004° 43.003°
近地点辐角 284.828° 311.460°
升交点赤经 333.997° 342.850°
平近点角 75.243° 59.151°
近地点 482.221km 482.966km
远地点 483.921km 483.178km
周期 94.267分钟 94.267分钟
每日圈数 15.275727 15.275725
详细信息
固有亮度:
5
最大亮度:
2.5
卫星平台:
Starlink v1.5
覆盖范围:
全球
运营商:
太空探索技术公司
运营商所在国:
美国
制造商(研发单位):
太空探索技术公司
制造商所在国:
美国
使用方式:
暂无
卫星简介
星链(Starlink)计划是由太空探索技术公司(SpaceX)提出的一个巨型低轨卫星互联网星座项目,计划在2019年至2024年间在太空搭建由约1.2万颗卫星组成的“星链”网络,其中1584颗将部署在地球上空550千米处的近地轨道,并从2020年开始工作。该卫星仍在工作。
2D轨道图
3D轨道图
轨道高度分析图
轨道倾角分析图
轨道综合分析图
查看轨道综合分析图
交会数据列表
事件ID 空间交会对象 最接近时刻(TCA) 交会距离 交会风险概率(CRP) 交会风险指数(CRI) 操作
CDM_260914-061205-533106-656421
2026-09-14T
06:12:14+0000
1.029 km
极远距离
9.622049E-6 低风险 0.55
CDM_260914-074605-533106-656421
2026-09-14T
07:46:24+0000
1.406 km
极远距离
3.368148E-6 低风险 0.46
CDM_260914-043805-533106-656421
2026-09-14T
04:38:05+0000
2.952 km
极远距离
6.502658E-7 极低风险 0.31
与全量物体交会距离演化趋势
与全量物体交会风险概率演化趋势